Погода в Романовке

Россия / Саратовская область     51°23′02″N   47°22′31″E
темп.,
°C
ветер,
м/с
пор.,
м/с
влажн.,
%
обл.,
%
осадки,
мм/ч
давл.,
гПа
погр.,
м
25 января, пн
пн2501:00−5ююв5109518 0.0 1029196
04:00−2ююв699735 0.0 1029388
07:00−1ююв5897100 0.0 1028536
10:00−1ююв6993100 0.1 1028593
13:00−2ююв6993100 0.0 1028616
16:00−2ююв6993100 0.1 1027618
19:00−1юв61095100 0.0 1027352
22:00−1ююв61194100 0.1 1026434
26 января, вт
вт2601:00−4ююв51093100 0.0 1026272
04:00−7ююв499379 0.0 1026178
07:00−7ююв51191100 0.0 1026219
10:00−5ююв61294100 0.0 1026287
13:00−3ююв61195100 0.0 1026395
16:00−2ююв6995100 0.0 1025427
19:00−3ююв71293100 0.0 1026425
22:00−5ююв41092100 0.0 1025263
27 января, ср
ср2701:00−5ююв51189100 0.0 1025239
04:00−4ююв5119099 0.0 1025294
07:00−3ююв61090100 0.0 1025263
10:00−5ююв61188100 0.0 1025261
13:00−4ююв61288100 0.0 1025299
16:00−4ююв51291100 0.0 1024291
19:00−4ююв61293100 0.0 1024311
22:00−4ююв61292100 0.0 1023333
28 января, чт
чт2801:00−5ююв61293100 0.0 1023297
04:00−6юв51193100 0.0 1022276
07:00−7юв51094100 0.0 1020263
10:00−7юв61293100 0.0 1020277
13:00−6юв5992100 0.0 1019330
16:00−6вюв51092100 0.0 1017312
19:00−8вюв41195100 0.0 1017280
22:00−6вюв41095100 0.0 1015330
29 января, пт
пт2901:00−5вюв5995100 0.3 1014335
04:00−5вюв4896100 0.3 1012337
07:00−5в4896100 0.0 1010309
10:00−4в3696100 0.1 1010311
13:00−4в3495100 0.1 1008274
16:00−4всв2495100 0.1 1007220
19:00−8ссв129698 0.0 100821
22:00−7ссз229599 0.0 100827